Location: Peterborough
(44.3091°N, 78.3197°W)
Time: 05:15:34
(UTC-04:00)

S-56A Canister/Altair - Pass Details

Date: 27 March 2023
Orbit: 639 x 2492 km, 38.9° (Epoch: 08 June)

Event Time Altitude Azimuth Distance (km) Brightness Sun altitude
Rises 16:44:31 0° 178° (S) 4,323 11.7 28.6°
Reaches altitude 10° 16:48:57 10° 156° (SSE) 3,727 11.1 27.9°
Maximum altitude 16:53:50 15° 126° (SE) 3,727 10.9 27.1°
Drops below altitude 10° 16:59:29 10° 97° (E) 4,492 11.0 26.2°
Sets 17:05:51 0° 78° (ENE) 5,836 11.5 25.1°
